Weather in Tsa-Vedeno

Russia / Chechen Republic     43°01′15″N   46°03′19″E
temp.,
°C
wind,
m/s
gust,
m/s
humid.,
%
clouds,
%
prec.,
mm/h
press.,
hPa
HPBL,
m
24 june, thu
thu2400:00+21s22580 0.0 101325
03:00+20s22540 0.0 101319
06:00+21ssw21500 0.0 101331
09:00+26nnw21410 0.0 1013712
12:00+30n33360 0.0 10121542
15:00+33n32300 0.0 10111989
18:00+29nnw24410 0.0 1011118
21:00+21ssw33680 0.0 101435
25 june, fri
fri2500:00+21s22678 0.0 101430
03:00+20sse22638 0.0 101325
06:00+22sse116167 0.0 101235
09:00+28n22462 0.0 1011852
12:00+32n33350 0.0 10101545
15:00+33n33300 0.0 10092001
18:00+30nnw24430 0.0 1009157
21:00+22s22740 0.0 101117
26 june, sat
sat2600:00+21sse2268100 0.0 101120
03:00+21s2261100 0.0 101021
06:00+22s115587 0.0 100931
09:00+27nw22500 0.0 1009817
12:00+32n223653 0.0 10081529
15:00+33nnw333191 0.0 10062223
18:00+28wnw245343 0.1 1008343
21:00+23s2267100 0.1 101026
27 june, sun
sun2700:00+23s2266100 0.0 101020
03:00+22ssw1155100 0.0 100920
06:00+22sw1160100 0.0 101135
09:00+24nw216199 0.0 1011471
12:00+29nnw2246100 0.0 10101187
15:00+31nne333942 0.1 10101963
18:00+29nnw135524 0.3 1010113
21:00+22ssw2274100 1.1 101316
28 june, mon
mon2800:00+21sse227663 0.1 101228
03:00+21s227237 0.1 101218
06:00+22wsw11675 0.1 101382
09:00+25nw22644 0.4 1013729
12:00+29nnw324839 0.1 10121485
15:00+31n334299 0.4 10101991
18:00+24wsw117199 1.9 101112
21:00+20sse3290100 5.4 101332